TimeAKDT,TemperatureF,Dew PointF,Humidity,Sea Level PressureIn,VisibilityMPH,Wind Direction,Wind SpeedMPH,Gust SpeedMPH,PrecipitationIn,Events,Conditions,WindDirDegrees,DateUTC
12:16 AM,23.0,15.8,74,29.99,10.0,NNE,4.6,-,N/A,,Clear,30,2013-10-02 08:16:00
12:36 AM,21.2,15.8,80,29.98,10.0,NNE,5.8,-,N/A,,Clear,30,2013-10-02 08:36:00
12:56 AM,21.2,15.8,80,29.98,10.0,NE,4.6,-,N/A,,Clear,40,2013-10-02 08:56:00
1:16 AM,19.4,14.0,80,29.98,10.0,NE,4.6,-,N/A,,Clear,40,2013-10-02 09:16:00
1:36 AM,19.4,14.0,80,29.99,10.0,NNE,4.6,-,N/A,,Clear,30,2013-10-02 09:36:00
1:56 AM,21.2,15.8,80,29.98,10.0,NE,5.8,-,N/A,,Clear,40,2013-10-02 09:56:00
2:16 AM,21.2,15.8,80,29.98,10.0,NE,4.6,-,N/A,,Clear,40,2013-10-02 10:16:00
2:36 AM,21.2,15.8,80,29.98,10.0,NE,5.8,-,N/A,,Clear,40,2013-10-02 10:36:00
2:56 AM,19.4,14.0,80,29.97,10.0,NE,5.8,-,N/A,,Clear,50,2013-10-02 10:56:00
3:16 AM,21.2,15.8,80,29.97,10.0,NE,5.8,-,N/A,,Clear,40,2013-10-02 11:16:00
3:36 AM,21.2,15.8,80,29.97,10.0,NNE,5.8,-,N/A,,Clear,30,2013-10-02 11:36:00
3:56 AM,19.4,14.0,80,29.96,10.0,NE,5.8,-,N/A,,Clear,50,2013-10-02 11:56:00
4:16 AM,19.4,14.0,80,29.96,10.0,NE,6.9,-,N/A,,Clear,50,2013-10-02 12:16:00
4:36 AM,19.4,12.2,74,29.96,10.0,NE,4.6,-,N/A,,Clear,50,2013-10-02 12:36:00
4:56 AM,19.4,14.0,80,29.95,10.0,NE,5.8,-,N/A,,Clear,50,2013-10-02 12:56:00
5:16 AM,19.4,12.2,74,29.95,10.0,NE,4.6,-,N/A,,Clear,50,2013-10-02 13:16:00
5:36 AM,19.4,12.2,74,29.95,10.0,NNE,5.8,-,N/A,,Clear,30,2013-10-02 13:36:00
5:56 AM,19.4,12.2,74,29.94,10.0,NE,5.8,-,N/A,,Clear,50,2013-10-02 13:56:00
6:16 AM,19.4,12.2,74,29.94,10.0,NE,5.8,-,N/A,,Clear,50,2013-10-02 14:16:00
6:36 AM,19.4,12.2,74,29.93,10.0,NNE,4.6,-,N/A,,Clear,30,2013-10-02 14:36:00
6:56 AM,19.4,12.2,74,29.94,10.0,NE,4.6,-,N/A,,Clear,40,2013-10-02 14:56:00
7:16 AM,19.4,12.2,74,29.94,10.0,NE,5.8,-,N/A,,Clear,50,2013-10-02 15:16:00
7:36 AM,19.4,14.0,80,29.94,10.0,NE,5.8,-,N/A,,Clear,40,2013-10-02 15:36:00
7:56 AM,19.4,15.8,86,29.94,10.0,NE,6.9,-,N/A,,Clear,40,2013-10-02 15:56:00
8:16 AM,21.2,15.8,80,29.94,10.0,NE,6.9,-,N/A,,Clear,50,2013-10-02 16:16:00
8:36 AM,21.2,15.8,80,29.94,10.0,NE,6.9,-,N/A,,Clear,50,2013-10-02 16:36:00
8:56 AM,19.4,15.8,86,29.94,10.0,ENE,8.1,-,N/A,,Clear,60,2013-10-02 16:56:00
9:16 AM,21.2,15.8,80,29.93,10.0,NE,8.1,-,N/A,,Clear,50,2013-10-02 17:16:00
9:36 AM,19.4,15.8,86,29.93,10.0,NE,6.9,-,N/A,,Clear,50,2013-10-02 17:36:00
9:56 AM,21.2,15.8,80,29.93,10.0,NE,5.8,-,N/A,,Clear,40,2013-10-02 17:56:00
10:16 AM,21.2,15.8,80,29.93,10.0,NE,5.8,-,N/A,,Clear,50,2013-10-02 18:16:00
10:36 AM,23.0,17.6,80,29.92,10.0,ENE,6.9,-,N/A,,Clear,60,2013-10-02 18:36:00
10:56 AM,24.8,17.6,74,29.92,10.0,East,8.1,-,N/A,,Clear,80,2013-10-02 18:56:00
11:16 AM,26.6,19.4,74,29.92,10.0,ENE,6.9,-,N/A,,Clear,60,2013-10-02 19:16:00
11:36 AM,26.6,19.4,74,29.92,10.0,NE,9.2,-,N/A,,Clear,50,2013-10-02 19:36:00
11:56 AM,28.4,19.4,69,29.92,10.0,ENE,10.4,-,N/A,,Clear,60,2013-10-02 19:56:00
12:16 PM,30.2,21.2,69,29.92,10.0,NE,10.4,-,N/A,,Clear,50,2013-10-02 20:16:00
12:36 PM,30.2,21.2,69,29.92,10.0,ENE,10.4,17.3,N/A,,Clear,60,2013-10-02 20:36:00
12:56 PM,33.8,23.0,65,29.91,10.0,NE,10.4,17.3,N/A,,Clear,50,2013-10-02 20:56:00
1:16 PM,35.6,23.0,60,29.91,10.0,NE,10.4,17.3,N/A,,Clear,50,2013-10-02 21:16:00
1:36 PM,35.6,23.0,60,29.91,10.0,NE,12.7,17.3,N/A,,Clear,50,2013-10-02 21:36:00
1:56 PM,35.6,23.0,60,29.91,10.0,NE,10.4,17.3,N/A,,Clear,40,2013-10-02 21:56:00
2:16 PM,37.4,23.0,56,29.90,10.0,NE,9.2,17.3,N/A,,Clear,50,2013-10-02 22:16:00
2:36 PM,37.4,23.0,56,29.90,10.0,NE,11.5,16.1,N/A,,Clear,40,2013-10-02 22:36:00
2:56 PM,37.4,23.0,56,29.89,10.0,NE,11.5,-,N/A,,Clear,40,2013-10-02 22:56:00
3:16 PM,37.4,23.0,56,29.89,10.0,NE,6.9,-,N/A,,Clear,40,2013-10-02 23:16:00
3:36 PM,39.2,24.8,56,29.88,10.0,NE,11.5,17.3,N/A,,Partly Cloudy,50,2013-10-02 23:36:00
3:56 PM,39.2,23.0,52,29.88,10.0,NE,9.2,-,N/A,,Clear,40,2013-10-02 23:56:00
4:16 PM,39.2,24.8,56,29.87,10.0,NNE,10.4,-,N/A,,Partly Cloudy,30,2013-10-03 00:16:00
4:36 PM,39.2,23.0,52,29.87,10.0,NNE,9.2,-,N/A,,Partly Cloudy,30,2013-10-03 00:36:00
4:56 PM,39.2,23.0,52,29.86,10.0,NE,6.9,-,N/A,,Clear,50,2013-10-03 00:56:00
5:16 PM,39.2,23.0,52,29.86,10.0,NNE,9.2,-,N/A,,Clear,30,2013-10-03 01:16:00
5:36 PM,39.2,23.0,52,29.85,10.0,NNE,9.2,-,N/A,,Clear,20,2013-10-03 01:36:00
5:56 PM,39.2,23.0,52,29.86,10.0,NNE,10.4,-,N/A,,Clear,20,2013-10-03 01:56:00
6:16 PM,39.2,23.0,52,29.85,10.0,NNE,10.4,-,N/A,,Clear,20,2013-10-03 02:16:00
6:36 PM,39.2,23.0,52,29.85,10.0,NE,6.9,-,N/A,,Clear,40,2013-10-03 02:36:00
6:56 PM,39.2,23.0,52,29.85,10.0,NNE,9.2,-,N/A,,Clear,30,2013-10-03 02:56:00
7:16 PM,37.4,23.0,56,29.85,10.0,NNE,5.8,-,N/A,,Clear,20,2013-10-03 03:16:00
7:36 PM,37.4,21.2,52,29.85,10.0,NNE,6.9,-,N/A,,Clear,30,2013-10-03 03:36:00
7:56 PM,35.6,21.2,56,29.85,10.0,NNE,9.2,-,N/A,,Clear,20,2013-10-03 03:56:00
8:16 PM,32.0,21.2,64,29.86,10.0,NE,6.9,-,N/A,,Clear,40,2013-10-03 04:16:00
8:36 PM,30.2,21.2,69,29.86,10.0,NE,5.8,-,N/A,,Clear,40,2013-10-03 04:36:00
8:56 PM,28.4,19.4,69,29.86,10.0,NE,3.5,-,N/A,,Clear,40,2013-10-03 04:56:00
9:16 PM,28.4,19.4,69,29.86,10.0,NNE,3.5,-,N/A,,Clear,30,2013-10-03 05:16:00
9:36 PM,26.6,19.4,74,29.86,10.0,NNE,5.8,-,N/A,,Clear,20,2013-10-03 05:36:00
9:56 PM,26.6,19.4,74,29.87,10.0,NNE,5.8,-,N/A,,Clear,30,2013-10-03 05:56:00
10:16 PM,26.6,19.4,74,29.87,10.0,NE,4.6,-,N/A,,Clear,40,2013-10-03 06:16:00
10:36 PM,24.8,19.4,80,29.86,10.0,NNE,4.6,-,N/A,,Clear,30,2013-10-03 06:36:00
10:56 PM,24.8,19.4,80,29.87,10.0,NNE,6.9,-,N/A,,Clear,30,2013-10-03 06:56:00
11:16 PM,24.8,19.4,80,29.87,10.0,NE,4.6,-,N/A,,Clear,40,2013-10-03 07:16:00
11:36 PM,24.8,19.4,80,29.87,10.0,NE,6.9,-,N/A,,Clear,40,2013-10-03 07:36:00
11:56 PM,24.8,17.6,74,29.87,10.0,NE,5.8,-,N/A,,Clear,40,2013-10-03 07:56:00